Regional Weather Roundup
Issued by NWS

Home | Current Version | Previous Version | Graphics & Text | Print | Product List | Glossary On
Versions: 1 2 3 4 5 6 7 8 9 10 11 12 13 14 15 16 17 18 19 20 21 22 23 24 25 26 27 28 29 30 31 32 33 34 35 36 37 38 39 40 41 42 43 44 45 46 47 48 49 50
799
ASUS43 KDMX 271608
RWRIA

WEATHER ROUNDUP FOR IOWA
NATIONAL WEATHER SERVICE DES MOINES IA
1100 AM CDT SAT AUG 27 2016

NOTE: "FAIR" INDICATES FEW OR NO CLOUDS BELOW 12,000 FEET WITH NO
SIGNIFICANT WEATHER AND/OR OBSTRUCTIONS TO VISIBILITY.

* - THESE STATIONS ARE NOT NWS STATIONS...THUS NOT UNDER NWS
QUALITY CONTROL.  THEY ALSO DO NOT REPORT WEATHER SUCH
AS PRECIPITATION OR FOG.

IAZ001>003-012>014-020>022-031>034-043>046-271700-
   NORTHWEST IOWA

CITY           SKY/WX    TMP DP  RH WIND       PRES   REMARKS
CARROLL *      CLOUDY    68  66  94 CALM      30.03S
CHEROKEE *     CLOUDY    66  66 100 S6        30.02F FOG
DENISON *      CLOUDY    68  66  94 SW5       30.02S
LE MARS *      CLOUDY    68  64  88 W5        30.03R
ORANGE CITY *  CLOUDY    66  63  88 W6        30.03R
SHELDON *        N/A     64  64 100 SW5       30.01S
SIOUX CITY     CLOUDY    69  63  81 W3        30.02S
SPENCER        CLOUDY    64  62  93 S6        30.02F
STORM LAKE *   FOG       64  64 100 S7        30.03F VSB 3/4
$$

IAZ055>058-069>071-079>083-090>094-271700-
   SOUTHWEST IOWA

CITY           SKY/WX    TMP DP  RH WIND       PRES   REMARKS
ATLANTIC *     CLOUDY    70  68  94 CALM      30.03F
AUDUBON *      CLOUDY    66  64  94 S3        30.05S
CLARINDA *       N/A     73  68  83 MISG      30.06S
COUNCIL BLFS * CLOUDY    72  68  88 CALM      30.04R
CRESTON *      CLOUDY    72  68  88 CALM      30.06R
HARLAN  *      PTSUNNY   68  68 100 CALM      30.07S FOG
LAMONI         CLOUDY    72  70  93 S5        30.03F
RED OAK *      CLOUDY    72  68  88 VRB5      30.04S
SHENANDOAH *   CLOUDY    72 -36   1 W5        30.04S
$$

IAZ047>049-059>061-072>074-084-271700-
   CENTRAL IOWA

CITY           SKY/WX    TMP DP  RH WIND       PRES   REMARKS
AMES           CLOUDY    67  66  97 SW5       30.04S
ANKENY *         N/A    N/A N/A N/A MISG        N/A
BOONE *        CLOUDY    66  64  94 CALM      30.03F
CHARITON *     LGT RAIN  72  68  88 MISG      30.04F
DES MOINES     CLOUDY    69  66  90 SE5       30.03F FOG
GRINNELL*      CLOUDY    68  65  91 SW5       30.05S
KNOXVILLE *    CLOUDY    68  66  94 SW3       30.04S
MARSHALLTOWN   CLOUDY    67  66  97 VRB3      30.04S
NEWTON *       CLOUDY    68  68 100 CALM      30.04R
PERRY *        CLOUDY    67  66  97 S3        30.04S
$$

IAZ004>006-015-016-023>025-035-036-271700-
   NORTH CENTRAL IOWA

CITY           SKY/WX    TMP DP  RH WIND       PRES   REMARKS
ALGONA *       CLOUDY    64  63  94 S7        30.04S
ESTHERVILLE    CLOUDY    63  63 100 S9        30.02F
FORT DODGE *   CLOUDY    66  63  88 S6        30.05S
MASON CITY     CLOUDY    64  63  96 SE7       30.04F
FOREST CITY *    N/A    N/A N/A N/A MISG        N/A
WEBSTER CITY * CLOUDY    66  64  94 S6        30.01F
IOWA FALLS *   CLOUDY    68  65  89 SE5       30.04F
$$

IAZ007>011-017>019-026>030-037>042-050>054-066-271700-
   NORTHEAST IOWA

CITY           SKY/WX    TMP DP  RH WIND       PRES   REMARKS
CEDAR RAPIDS   PTSUNNY   73  70  90 SW8       30.02S
CHARLES CITY * CLOUDY    66  66 100 S5        30.04F FOG
CLINTON *      CLOUDY    77  71  82 SW10      30.02S
DECORAH *      CLOUDY    64  64 100 VRB5G12   30.04S
DUBUQUE        FOG       66  66 100 N6        30.03F VSB 3/4
MONTICELLO *   CLOUDY    72  70  94 W5        30.01S
OELWEIN *      CLOUDY    66  64  94 E5        30.04F
WATERLOO       CLOUDY    67  64  90 SE6       30.02F
$$

IAZ064-065-067-068-078-271700-
   EAST CENTRAL IOWA

CITY           SKY/WX    TMP DP  RH WIND       PRES   REMARKS
DAVENPORT      CLOUDY    76  69  79 W14       30.02F
IOWA CITY      CLOUDY    74  67  78 W10       30.03F
MT. PLEASANT * MOSUNNY   79  71  77 SW12      30.03S HX  82
MUSCATINE *    CLOUDY    75  68  78 SW9       30.02F
QUAD CITIES    PTSUNNY   76  68  76 SW15      30.02S
$$

IAZ062-063-075>077-085>089-095>099-271700-
   SOUTHEAST IOWA

CITY           SKY/WX    TMP DP  RH WIND       PRES   REMARKS
BURLINGTON     SUNNY     77  72  84 SW10      30.03F
FAIRFIELD *    CLOUDY    75  68  78 SW8       30.04S
FORT MADISON * SUNNY     79  72  78 SW8       30.05S HX  82
KEOKUK *       SUNNY     79  72  78 W9        30.04S HX  82
OSKALOOSA *    CLOUDY    70  67  91 W7        30.04F
CENTERVILLE *    N/A     75  68  78 CALM      30.06S
OTTUMWA        CLOUDY    74  68  81 SW9       30.04F
WASHINGTON *   CLOUDY    75  70  83 SW8G14    30.03F
$$

ABBREVIATIONS USED IN REMARKS
   TC - TEMPERATURES IN CELSIUS
  WCI - WIND CHILL INDEX
   HX - HEAT INDEX
  VSB - VISIBILITY
$$





USA.gov is the U.S. government's official web portal to all federal, state and local government web resources and services.